Location: Unspecified
(0.0000°N, 0.0000°E)
Time: 19:02:58
(UTC+00:00)

Vanguard 1 - Pass Details

Date: 19 November 2019
Orbit: 652 x 3832 km, 34.3° (Epoch: 09 December)

Event Time Altitude Azimuth Distance (km) Brightness Sun altitude
Rises 02:23:37 0° 223° (SW) 7,236 14.4 -46.6°
Reaches altitude 10° 02:29:52 10° 210° (SSW) 6,572 14.2 -45.3°
Maximum altitude 02:47:43 27° 159° (SSE) 5,565 14.1 -41.3°
Drops below altitude 10° 03:04:38 10° 108° (ESE) 6,321 14.9 -37.5°
Sets 03:10:17 0° 96° (E) 6,944 15.3 -36.2°
